[[{"header":{"parameterUnit":"m.s-1","parameterCategory":1,"la1":30.2991,"la2":30.254,"lo1":-89.0895,"lo2":-89.0444,"dy":0.0017,"dx":0.0017,"nx":28,"ny":28,"refTime":"2025-06-02T09:00:00:Z","depth":0,"parameterNumber":2,"parameterNumberName":"U-component_of_WINDS"},"data":[0,0,0,0,0,0,0,0,0,0,0,0,0,0,0,0,0,0,0,0,0,0,0,0,0,0,0,0,0,0,0,0,0,0,0,0,0,0,0,0,0,0,0,0,0,0,0,0,0,0,0,0,0,0,0,0,0,0,1.0991,1.0992,0,1.1027,1.1027,1.1028,1.1009,1.1008,1.1007,1.1006,1.1042,1.1044,1.1046,0,0,0,0,0,0,0,0,0,0,0,0,0,1.0905,1.0907,1.0991,1.0992,1.0992,1.1027,1.1027,1.1028,1.1009,1.1008,1.1007,1.1006,1.1042,1.1044,1.1046,0,0,0,0,0,0,0,0,0,0,0,0,0,1.0942,1.0908,1.0991,1.0987,1.0987,1.1027,1.1027,1.1028,1.1009,1.1008,1.1006,1.1005,1.1041,1.1044,1.1046,1.1092,0,0,1.1055,1.1056,0,0,0,0,0,0,0,0,1.094,1.0945,1.0987,1.0987,1.0987,1.1012,1.101,1.1049,1.101,1.1001,1.1006,1.1004,1.1033,1.1037,1.1046,1.1094,1.1095,1.1055,1.1057,1.1058,1.1059,0,0,0,0,0,0,0,1.0937,1.0943,1.1005,1.0988,1.0988,1.0983,1.0986,1.1017,1.1025,1.1001,1.1,1.1005,1.1033,1.1044,1.1047,1.1096,1.1055,1.1057,1.1059,1.106,1.1179,1.118,0,0,0,0,0,0,1.0935,1.0941,1.1004,1.1006,1.096,1.0985,1.0989,1.1005,1.1024,1.1026,1.1006,1.1004,1.104,1.1044,1.1048,1.11,1.1058,1.1061,1.1062,1.1177,1.1179,1.1181,0,0,0,0,0,0,1.0933,1.0941,1.1003,1.0974,1.0981,1.0988,1.1007,1.1007,1.1018,1.1028,1.1029,1.1015,1.1039,1.1044,1.108,1.1101,1.1062,1.1064,1.1176,1.1178,1.118,1.1206,0,0,0,0,0,0,1.0931,1.094,1.0959,1.0974,1.0983,1.1035,1.1008,1.1009,1.1022,1.102,1.1037,1.1038,1.1038,1.1076,1.1083,1.1104,1.1066,1.1174,1.1177,1.1179,1.1204,1.1209,1.1214,0,0,0,0,0,1.0928,1.0965,1.096,1.0967,1.1005,1.1036,1.1041,1.104,1.1024,1.1042,1.1048,1.1038,1.1098,1.108,1.1088,1.111,1.1172,1.1176,1.1179,1.1201,1.1208,1.1214,0,0,0,0,0,0,1.0953,1.0967,1.0961,1.1005,1.1019,1.1033,1.1055,1.1048,1.1067,1.1064,1.1062,1.1066,1.1103,1.1111,1.109,1.1154,1.1133,1.1138,1.1147,1.1154,1.1159,1.1155,1.1069,0,0,0,0,0,1.0963,1.0987,1.0999,1.1036,1.1044,1.1048,1.1062,1.1059,1.1074,1.1081,1.1089,1.1104,1.1126,1.1141,1.1162,1.1205,1.1207,1.1224,1.1229,1.1233,1.1237,1.1257,1.1264,1.1192,1.1192,1.1192,0,0,1.0985,1.0996,1.1012,1.1041,1.1052,1.1076,1.1054,1.1081,1.1098,1.1085,1.1118,1.1125,1.1141,1.118,1.1198,1.1188,1.1258,1.1238,1.1241,1.1242,1.1261,1.1268,1.1274,1.1194,1.1194,1.1193,0,0,1.1036,1.1048,1.1079,1.109,1.1107,1.1109,1.1116,1.1131,1.1135,1.1169,1.1158,1.1179,1.1218,1.1228,1.1239,1.1292,1.1283,1.1299,1.1326,1.1345,1.1351,1.1356,1.1372,1.1378,1.1303,1.1303,1.1303,0,1.1061,1.1097,1.1096,1.1123,1.1135,1.1123,1.1153,1.1164,1.1187,1.1195,1.1184,1.123,1.124,1.128,1.1293,1.1303,1.1309,1.1296,1.135,1.1355,1.136,1.1375,1.1382,1.1305,1.1305,1.1305,1.1305,0,1.1126,1.1151,1.1173,1.1194,1.1209,1.1238,1.1239,1.1254,1.1251,1.1254,1.1287,1.1299,1.1321,1.133,1.1328,1.1369,1.1362,1.1351,1.1329,1.1369,1.1383,1.1389,1.1307,1.1307,1.1306,1.1306,0,0,1.1194,1.1212,1.122,1.1228,1.1244,1.1263,1.129,1.1311,1.1323,1.1339,1.136,1.1392,1.1381,1.1393,1.1391,1.1409,1.1446,1.1395,1.1395,1.1402,1.1489,1.1496,1.1503,1.1441,1.1442,1.1443,1.1487,0,1.1244,1.1291,1.1289,1.1332,1.1353,1.1342,1.1365,1.1377,1.1381,1.1399,1.1403,1.1424,1.141,1.1416,1.1433,1.1438,1.1463,1.1435,1.1458,1.1459,1.1452,1.1511,1.1518,1.156,1.1493,1.1494,1.1495,0,1.1309,1.1325,1.137,1.1381,1.139,1.141,1.1428,1.1446,1.1459,1.146,1.1472,1.1467,1.1492,1.1472,1.1506,1.1487,1.1496,1.15,1.1501,1.1502,1.1478,1.151,1.1573,1.1578,1.1504,1.1503,1.1502,0,1.135,1.1384,1.1414,1.1422,1.1436,1.145,1.1456,1.1468,1.1479,1.1495,1.1502,1.152,1.153,1.1544,1.1543,1.1528,1.1577,1.1557,1.1577,1.1577,1.1586,1.1585,1.1649,1.1596,1.1596,1.1596,1.1596,0,1.1405,1.1432,1.1432,1.1451,1.148,1.1478,1.1507,1.1512,1.1521,1.154,1.1532,1.1549,1.1548,1.1565,1.1565,1.1592,1.1597,1.1597,1.1597,1.1597,1.1596,1.1602,1.1598,1.1598,1.1597,1.1597,1.1597,0,1.1456,1.1457,1.1489,1.1499,1.1502,1.1523,1.1531,1.1548,1.155,1.1573,1.1578,1.1582,1.1601,1.1602,1.1626,1.1625,1.1657,1.1654,1.1652,1.1651,1.167,1.1667,1.1737,1.1745,1.169,1.169,1.1691,0,1.149,1.151,1.1521,1.1532,1.1539,1.1558,1.1569,1.1567,1.1579,1.1594,1.1608,1.1627,1.1642,1.1673,1.1677,1.1694,1.169,1.1714,1.1693,1.1691,1.1687,1.1685,1.1686,1.1717,1.1718,1.1718,1.1719,0,1.1548,1.1547,1.1564,1.158,1.1593,1.1606,1.1618,1.1627,1.1626,1.164,1.1659,1.1671,1.1693,1.1711,1.1727,1.1733,1.1725,1.1725,1.173,1.173,1.1727,1.1726,1.166,1.1723,1.1723,1.1723,1.1722,1.1722,1.159,1.1606,1.1616,1.1633,1.1642,1.1652,1.1667,1.1671,1.1687,1.1704,1.1703,1.1723,1.1733,1.1754,1.1761,1.1776,1.1768,1.1776,1.1778,1.1779,1.178,1.1726,1.178,1.178,1.178,1.1779,1.1779,0,1.1646,1.1651,1.1667,1.1683,1.1696,1.1688,1.17,1.1711,1.173,1.174,1.1753,1.1774,1.1791,1.1796,1.1812,1.1823,1.182,1.1827,1.1825,1.1826,1.1788,1.1781,1.183,1.183,1.183,1.183,1.183,1.183,1.1676,1.1702,1.1702,1.1731,1.1736,1.1756,1.1763,1.1772,1.178,1.1803,1.1816,1.182,1.1827,1.1843,1.1857,1.1858,1.1863,1.1872,1.1871,1.1835,1.1829,1.1824,1.1817,1.1873,1.1873,1.1908,1.1908,1.1908]},{"header":{"parameterUnit":"m.s-1","parameterCategory":1,"la1":30.2991,"la2":30.254,"lo1":-89.0895,"lo2":-89.0444,"dy":0.0017,"dx":0.0017,"nx":28,"ny":28,"refTime":"2025-06-02T09:00:00:Z","depth":0,"parameterNumber":3,"parameterNumberName":"V-component_of_WINDS"},"data":[0,0,0,0,0,0,0,0,0,0,0,0,0,0,0,0,0,0,0,0,0,0,0,0,0,0,0,0,0,0,0,0,0,0,0,0,0,0,0,0,0,0,0,0,0,0,0,0,0,0,0,0,0,0,0,0,0,0,0.3917,0.3919,0,0.4045,0.4046,0.4048,0.409,0.4089,0.4089,0.4088,0.4217,0.4221,0.4225,0,0,0,0,0,0,0,0,0,0,0,0,0,0.3706,0.371,0.3917,0.3919,0.392,0.4044,0.4046,0.4048,0.409,0.4089,0.4089,0.4088,0.4216,0.4221,0.4226,0,0,0,0,0,0,0,0,0,0,0,0,0,0.3812,0.3711,0.3917,0.3956,0.3961,0.4044,0.4046,0.4048,0.409,0.4089,0.4089,0.4088,0.4215,0.422,0.4226,0.4279,0,0,0.4244,0.4247,0,0,0,0,0,0,0,0,0.3806,0.382,0.3949,0.3954,0.3959,0.4051,0.4019,0.4126,0.409,0.4041,0.4088,0.4087,0.4163,0.4173,0.4198,0.4285,0.429,0.4245,0.4248,0.4251,0.4253,0,0,0,0,0,0,0,0.3799,0.3815,0.3968,0.3951,0.3957,0.3966,0.3981,0.404,0.4105,0.4045,0.4049,0.4063,0.4165,0.4192,0.4202,0.4292,0.4245,0.425,0.4253,0.4256,0.4424,0.4425,0,0,0,0,0,0,0.3785,0.3808,0.3964,0.3971,0.3879,0.3971,0.3987,0.4022,0.4104,0.4116,0.4064,0.4065,0.4183,0.4195,0.4206,0.4272,0.4251,0.4256,0.426,0.4423,0.4425,0.4426,0,0,0,0,0,0,0.378,0.3799,0.3958,0.3891,0.3912,0.3975,0.4015,0.4025,0.4053,0.4118,0.413,0.408,0.4183,0.4198,0.426,0.4277,0.4259,0.4264,0.4422,0.4424,0.4425,0.4403,0,0,0,0,0,0,0.3774,0.3797,0.3819,0.3891,0.3915,0.4011,0.4016,0.4028,0.4063,0.4065,0.4137,0.4148,0.4183,0.4251,0.4266,0.4285,0.4269,0.4421,0.4423,0.4425,0.4403,0.4404,0.4405,0,0,0,0,0,0.3767,0.3808,0.382,0.3838,0.3944,0.4012,0.4026,0.4067,0.4064,0.4086,0.4127,0.4145,0.4272,0.4257,0.4274,0.4295,0.442,0.4423,0.4425,0.4403,0.4404,0.4405,0,0,0,0,0,0,0.3736,0.3818,0.3832,0.3898,0.3948,0.4019,0.4048,0.4067,0.4118,0.4118,0.4165,0.4181,0.4239,0.4273,0.4254,0.4348,0.4347,0.4352,0.4324,0.4326,0.4327,0.4318,0.4274,0,0,0,0,0,0.3737,0.3786,0.3855,0.3906,0.393,0.3984,0.4016,0.4042,0.4095,0.4117,0.4163,0.4213,0.4264,0.4297,0.4347,0.4407,0.4422,0.443,0.443,0.4431,0.4435,0.4467,0.4471,0.4433,0.4433,0.4433,0,0,0.374,0.3791,0.3819,0.3902,0.3943,0.3991,0.4002,0.4054,0.409,0.4124,0.4186,0.422,0.4279,0.4339,0.4368,0.437,0.4449,0.4434,0.4433,0.4438,0.447,0.4473,0.4476,0.4434,0.4434,0.4434,0,0,0.377,0.3814,0.3861,0.3901,0.3963,0.3999,0.4009,0.4077,0.4102,0.4163,0.419,0.4232,0.4319,0.4359,0.4391,0.4431,0.4449,0.4446,0.4451,0.4481,0.4484,0.4487,0.45,0.4504,0.445,0.445,0.445,0,0.3766,0.3841,0.3882,0.3932,0.3966,0.3998,0.4045,0.4082,0.4157,0.418,0.418,0.4288,0.433,0.4399,0.4408,0.4433,0.4445,0.4439,0.4481,0.4484,0.4487,0.45,0.4505,0.4449,0.4449,0.4449,0.4449,0,0.3831,0.3882,0.3912,0.3984,0.4021,0.4069,0.4116,0.4149,0.417,0.4205,0.4265,0.4316,0.4376,0.4394,0.4417,0.4465,0.4464,0.4472,0.4472,0.4489,0.4502,0.4508,0.4448,0.4448,0.4448,0.4449,0,0,0.3849,0.394,0.395,0.3982,0.4051,0.4091,0.4138,0.4197,0.4223,0.4272,0.4312,0.4383,0.439,0.4426,0.4452,0.4479,0.4505,0.4483,0.4485,0.4485,0.4559,0.4553,0.4558,0.4516,0.4517,0.4518,0.4554,0,0.3888,0.3975,0.4012,0.4082,0.4128,0.4157,0.4198,0.4244,0.4276,0.4319,0.4354,0.4403,0.4409,0.443,0.4457,0.4496,0.452,0.4494,0.4553,0.4554,0.4538,0.4565,0.456,0.4592,0.4559,0.456,0.4561,0,0.3946,0.3995,0.4069,0.4129,0.415,0.4187,0.4241,0.4282,0.4333,0.4355,0.4392,0.4417,0.4465,0.446,0.4527,0.4508,0.4533,0.4555,0.4557,0.4565,0.4559,0.4573,0.4603,0.4608,0.4569,0.4569,0.4568,0,0.395,0.4034,0.4089,0.4115,0.4187,0.4212,0.4243,0.4293,0.4325,0.4372,0.4392,0.4444,0.4473,0.4512,0.4548,0.4542,0.4611,0.4609,0.4628,0.4627,0.4643,0.4642,0.4677,0.4659,0.4659,0.4659,0.4658,0,0.399,0.4034,0.4092,0.4126,0.4175,0.4215,0.4262,0.4295,0.4338,0.4377,0.4405,0.4441,0.4487,0.4528,0.4557,0.4606,0.4619,0.4636,0.4644,0.4634,0.4632,0.4653,0.4651,0.466,0.466,0.4659,0.4659,0,0.4004,0.4045,0.4106,0.4168,0.4184,0.4218,0.427,0.4303,0.4335,0.4384,0.4397,0.4447,0.4497,0.4537,0.4601,0.462,0.4672,0.468,0.4655,0.4659,0.4675,0.4673,0.4725,0.4734,0.471,0.471,0.471,0,0.4027,0.4061,0.4126,0.4154,0.4185,0.423,0.4262,0.4301,0.4333,0.4391,0.4416,0.4467,0.4511,0.4588,0.4629,0.4677,0.4687,0.4702,0.4695,0.4683,0.4686,0.4684,0.4687,0.4703,0.4703,0.4703,0.4703,0,0.4063,0.408,0.4126,0.4177,0.4214,0.4256,0.4299,0.432,0.4367,0.4401,0.4451,0.4485,0.4549,0.4599,0.4651,0.4682,0.4699,0.4704,0.4711,0.4703,0.4686,0.4694,0.4657,0.4704,0.4704,0.4703,0.4703,0.4703,0.4082,0.4113,0.4163,0.4211,0.4247,0.4286,0.4319,0.4353,0.4397,0.4453,0.4472,0.4524,0.457,0.4642,0.4672,0.4712,0.4713,0.4724,0.4726,0.4728,0.4726,0.4679,0.4721,0.4721,0.4721,0.4721,0.4721,0,0.4119,0.4152,0.4196,0.4254,0.4291,0.4304,0.4351,0.4381,0.4426,0.4468,0.4509,0.4565,0.4613,0.4656,0.4705,0.4728,0.4737,0.4739,0.4738,0.4745,0.4723,0.4712,0.4731,0.4731,0.4731,0.4731,0.4731,0.4731,0.4143,0.4195,0.4218,0.4287,0.4319,0.4369,0.4395,0.4429,0.4463,0.4525,0.4564,0.4592,0.4633,0.4685,0.4728,0.4739,0.4755,0.4756,0.4769,0.4748,0.4746,0.4745,0.4735,0.4759,0.4759,0.4788,0.4788,0.4788]}]]